Lid_Strength_Index
5 5 5 5 5 5 6 7 8 8 8 8 8 8 8 7 6 5 4 5 5 5 5 1 1 1 1 1 2 2 3 3 2 4 5 4 3 2 2 2 2 2 1
5 6 6 6 6 7 7 8 8 9 9 9 9 9 9 7 7 5 5 5 4 5 5 5 3 1 1 2 2 2 2 2 2 3 4 6 4 3 2 2 2 2 1
6 7 7 7 8 8 8 8 9 9 9 9 9 10 9 8 8 8 7 6 6 5 4 4 4 3 1 1 2 2 2 3 3 3 4 6 7 5 4 3 2 2 2
7 7 8 9 9 9 8 9 9 10 10 10 11 11 12 11 10 9 8 7 6 6 5 4 3 3 1 1 1 2 2 4 5 4 3 3 3 6 6 4 2 2 2
7 9 9 9 9 9 9 10 10 10 11 11 11 11 12 11 10 9 8 7 7 6 5 5 4 3 2 2 1 3 5 5 5 5 4 3 3 3 5 6 4 2 2
8 8 9 9 9 9 9 10 11 12 11 11 11 11 12 11 11 10 9 8 7 6 5 5 4 3 2 1 1 2 3 4 4 4 3 3 4 4 4 6 5 4 3
9 10 10 10 10 10 10 10 11 12 12 11 11 11 11 11 11 10 9 9 8 7 6 5 5 4 3 1 1 2 3 3 3 3 2 2 2 2 3 5 6 5 3
10 10 10 11 11 11 11 12 12 12 12 12 11 10 10 10 10 11 11 10 8 7 6 6 5 5 4 2 1 1 2 3 2 2 2 2 2 2 2 3 5 6 5
11 11 11 11 11 11 12 12 12 11 12 12 12 12 11 11 11 11 10 9 9 8 7 7 6 6 3 3 1 1 2 2 1 2 2 2 2 1 1 2 2 4 7
12 12 12 12 12 12 12 12 12 12 12 12 12 12 11 10 11 11 11 10 10 9 9 8 7 6 4 3 2 1 1 2 2 2 2 2 2 1 1 2 3 3 5
13 13 12 12 12 12 12 12 12 12 12 12 12 12 12 12 11 11 11 11 10 10 10 9 8 7 6 3 3 2 2 2 2 2 2 2 2 2 2 2 2 3 4
13 13 13 13 13 13 12 13 13 13 12 12 12 12 12 12 12 12 12 12 12 11 11 10 9 9 9 7 2 3 2 2 2 2 2 2 2 2 2 2 2 2 3
13 13 14 14 14 13 13 13 13 13 12 12 12 12 13 13 13 13 13 12 12 12 12 11 11 11 11 10 8 3 2 2 2 2 2 3 3 3 2 2 2 2 2
13 14 14 15 14 13 13 13 13 12 12 12 12 13 13 13 13 13 13 13 13 13 13 13 12 12 12 12 12 9 5 2 2 2 2 2 2 2 2 2 2 2 3
14 14 15 14 14 14 14 13 13 12 13 13 13 13 13 12 12 13 12 13 13 14 14 14 14 14 13 13 13 10 7 5 2 3 4 4 3 5 4 2 2 2 3
14 14 14 14 14 14 14 14 13 13 13 14 13 13 13 13 13 13 13 14 14 14 15 15 15 15 15 14 14 13 13 14 10 8 10 11 10 11 11 11 10 4 3
14 14 14 14 14 13 13 14 13 13 13 13 13 13 13 14 14 13 14 14 15 16 16 16 16 16 16 15 15 15 15 15 16 16 13 12 11 11 12 13 13 15 14
13 13 13 12 12 11 12 12 12 12 13 14 14 13 14 14 14 14 14 15 15 16 17 17 17 16 16 15 16 15 16 16 17 17 16 15 15 14 12 13 15 16 16
12 12 11 11 11 12 11 11 11 11 12 14 14 14 15 16 15 16 16 15 16 17 17 17 18 17 17 15 16 17 17 17 17 17 17 16 16 15 14 15 16 17 18
11 12 13 15 14 12 12 11 11 12 12 13 14 14 14 16 17 17 17 17 17 18 18 18 18 17 17 15 15 16 18 19 18 18 18 16 17 16 16 17 17 18 19
12 13 13 14 14 12 12 13 13 14 13 12 14 14 15 15 16 16 17 17 17 18 19 19 18 18 18 17 15 15 17 18 19 19 18 18 17 17 16 17 18 19 18
13 14 15 15 14 13 13 14 14 14 14 14 13 14 14 14 15 16 16 16 16 17 18 18 18 17 17 17 16 16 16 17 19 19 18 18 17 17 17 18 18 18 19
15 14 15 15 15 15 15 15 14 13 13 13 13 13 13 14 14 15 15 15 15 16 16 17 17 17 16 17 16 16 17 18 19 18 18 18 18 18 18 17 18 19 19
16 16 16 17 16 15 15 14 13 12 12 13 13 13 13 14 13 14 14 15 16 16 16 17 17 17 16 16 16 16 17 18 18 19 19 19 19 19 19 19 18 18 19
17 16 17 17 17 15 15 15 14 13 13 13 13 13 13 14 14 14 14 15 15 15 16 15 16 17 17 15 15 16 17 17 18 19 19 20 20 21 20 20 20 19 19
18 18 18 18 17 17 17 16 15 14 14 14 14 14 14 14 14 15 15 13 14 14 14 13 14 16 15 14 14 14 15 15 16 19 20 20 21 21 21 21 21 20 20